Location: Enborne
(51.3833°N, 1.3667°W)
Time: 14:33:43
(UTC+00:00)

Cosmos 1844 Rocket - Pass Details

Date: 19 January 2021
Orbit: 826 x 843 km, 71.0° (Epoch: 05 March)

Event Time Altitude Azimuth Distance (km) Brightness Sun altitude
Rises 20:09:12 0° 231° (SW) 3,393 6.4 -33.1°
Reaches altitude 10° 20:11:45 10° 237° (WSW) 2,460 5.6 -33.5°
Enters shadow 20:16:42 44° 296° (WNW) 1,159 3.7 -34.3°
